Flag for Austria Weather past 2 weeks in Güssing, Burgenland, Austria

Now
50 °F

Cool.


Feels Like: 46 °F
Forecast: 44 / 54 °F
Wind: 9 mph from Northeast

Location: Murska Sobota

Current Time: Oct 23, 2014 at 7:29:11 PM

Latest Report: Oct 23, 2014 at 6:00 PM


Visibility: N/A

Pressure: 29.82 "Hg

Humidity: 85%

Dew point: 45 °F

Location of GüssingLocation

Historic Weather in Güssing — Graph

°F

Güssing temperature yesterday

Maximum temperature yesterday: 59 °F (at 12:00 AM)
Minimum temperature yesterday: 42 °F (at 8:00 AM)
Average temperature yesterday: 48 °F

Past Weeks' High & Low Weather Summary

 TemperatureHumidityPressure
High79 °F (Oct 10, 1:00 PM)100% (Oct 11, 6:00 AM)30.35 "Hg (Oct 11, 6:00 AM)
Low42 °F (Oct 22, 8:00 AM)44% (Oct 14, 3:00 PM)29.61 "Hg (Oct 22, 1:00 AM)
Average61 °F82%29.95 "Hg
* Reported Oct 8 6:00 PM — Oct 23 6:00 PM, Güssing, Weather by CustomWeather, © 2014

Note: Actual official high and low records may vary slightly from our data, if they occured in-between our weather recording intervals... More about our weather records

Advertising

Güssing weather history for previous 24 hours

 ConditionsComfort  
Time TempWeatherWind HumidityBarometerVisibility
6:00 PM
Oct 23
50 °FCool.9 mph85%29.82 "HgN/A
5:00 PM49 °FCool.8 mph86%29.81 "HgN/A
4:00 PM49 °FCool.8 mph89%29.81 "HgN/A
3:00 PM49 °FLight rain. Overcast.7 mph93%29.80 "Hg5 mi
2:00 PM48 °FRain. Overcast.5 mph92%29.81 "Hg5 mi
1:00 PM48 °FLight rain. Overcast.3 mph91%29.81 "Hg6 mi
12:00 PM47 °FLight rain. Overcast.3 mph88%29.80 "Hg6 mi
11:00 AM47 °FLight rain. Overcast.2 mph86%29.80 "Hg6 mi
10:00 AM46 °FOvercast.2 mph89%29.78 "Hg6 mi
9:00 AM45 °FLight rain. Overcast.2 mph89%29.77 "Hg6 mi
8:00 AM45 °FLight rain. Overcast.1 mph85%29.76 "Hg6 mi
7:00 AM45 °FOvercast.1 mph86%29.74 "Hg6 mi
6:00 AM46 °FLight rain. Overcast.1 mph81%29.74 "Hg6 mi
5:00 AM45 °FLight rain. Overcast.3 mph77%29.73 "Hg6 mi
4:00 AM44 °FQuite cool.1 mph86%29.75 "HgN/A
3:00 AM45 °FQuite cool.1 mph84%29.75 "HgN/A
2:00 AM45 °FQuite cool.1 mph85%29.76 "HgN/A
1:00 AM46 °FCool.2 mph83%29.75 "HgN/A
12:00 AM46 °FCool.2 mph76%29.77 "HgN/A
11:00 PM
Oct 22
46 °FCool.3 mph76%29.77 "HgN/A
10:00 PM46 °FCool.2 mph77%29.78 "HgN/A
9:00 PM46 °FCool.1 mph76%29.78 "HgN/A
8:00 PM49 °FOvercast.3 mph63%29.77 "Hg6 mi
7:00 PM49 °FCool.3 mph65%29.78 "HgN/A
Weather by CustomWeather, © 2014

See weather overviewHow to use our weather pages